FW4027 Ios Boat Parking GR current weather conditions

sailwx.info

Wind from 329 at 4 knots gusting 5

Air temperature 13.3° C
Dewpoint 9.2° C

Last reported at 2019-Dec-11 20:04 UTC.
Time now 2019-Dec-11 21:14 UTC

Location: N 36°44' E 025°17'.
View on Google Maps.

See reports from other nearby stations

  
Tides and Currents Weather Stations Pressure Air Temp Water Temp Dewpoint Dewpoint Depression Visibility Wind Speed Wind Dir Waves Ship Positions
date/time (UTC)wind fromknots sea level pressurealtimeterstation pressurevisibilityair tempwater tempwave heightnotes
2019-Dec-11 20:04 329 4 gusting 5 13.3
2019-Dec-11 19:54 13.3
2019-Dec-11 19:49 337 5 gusting 9 13.3
2019-Dec-11 19:44 13.3
2019-Dec-11 19:39 350 6 gusting 8 13.3
2019-Dec-11 19:34 008 5 gusting 7 13.9
2019-Dec-11 19:29 051 5 gusting 7 13.9
2019-Dec-11 19:24 343 1 gusting 7 13.9
2019-Dec-11 19:19 212 5 gusting 8 13.9
2019-Dec-11 19:14 195 3 gusting 10 13.9
2019-Dec-11 19:04 190 0 gusting 2 13.9
2019-Dec-11 18:59 338 0 gusting 1 13.9
2019-Dec-11 18:54 337 1 gusting 3 13.9
2019-Dec-11 18:49 337 0 gusting 3 13.9
2019-Dec-11 18:44 355 2 gusting 3 14.4
2019-Dec-11 18:39 337 1 gusting 5 13.9
2019-Dec-11 18:34 337 1 gusting 5 13.9
2019-Dec-11 18:29 347 2 gusting 4 13.9
2019-Dec-11 18:24 13.9
2019-Dec-11 18:19 343 1 gusting 4 13.9
2019-Dec-11 18:14 321 3 gusting 4 13.9
2019-Dec-11 18:09 324 1 gusting 3 13.9
2019-Dec-11 18:04 324 2 gusting 3 13.9
2019-Dec-11 17:59 324 2 gusting 3 14.4
2019-Dec-11 17:54 331 0 gusting 1 14.4
2019-Dec-11 17:49 331 14.4
2019-Dec-11 17:44 331 14.4
2019-Dec-11 17:39 331 14.4
2019-Dec-11 17:34 331 0 gusting 1 14.4
2019-Dec-11 17:29 331 14.4
2019-Dec-11 17:24 331 0 gusting 2 14.4
2019-Dec-11 17:19 331 1 gusting 2 14.4
2019-Dec-11 17:14 331 1 gusting 2 14.4
2019-Dec-11 17:09 329 1 gusting 2 14.4
2019-Dec-11 17:04 327 1 gusting 2 14.4
2019-Dec-11 16:59 357 1 gusting 2 14.4
2019-Dec-11 16:54 357 0 gusting 3 14.4
2019-Dec-11 16:49 357 1 gusting 3 14.4
2019-Dec-11 16:44 358 3 gusting 4 14.4
2019-Dec-11 16:39 353 3 gusting 4 14.4
2019-Dec-11 16:34 331 2 gusting 3 14.4
2019-Dec-11 16:29 329 3 gusting 4 14.4
2019-Dec-11 16:24 338 3 gusting 4 14.4
2019-Dec-11 16:19 319 3 gusting 4 14.4
2019-Dec-11 16:14 309 1 gusting 2 14.4
2019-Dec-11 16:09 357 1 gusting 2 15.0
2019-Dec-11 16:04 358 15.0
2019-Dec-11 15:59 357 1 gusting 1 15.0
2019-Dec-11 15:54 357 0 gusting 1 15.0
2019-Dec-11 15:49 358 15.6
2019-Dec-11 15:44 355 1 gusting 2 15.6
2019-Dec-11 15:39 355 1 gusting 2 15.6
2019-Dec-11 15:34 355 2 gusting 2 15.6
2019-Dec-11 15:29 355 15.6
2019-Dec-11 15:24 354 15.6
2019-Dec-11 15:19 16.1
2019-Dec-11 15:14 355 1 gusting 3 16.1
2019-Dec-11 15:09 041 1 gusting 2 16.1
2019-Dec-11 15:04 041 0 gusting 4 16.1
2019-Dec-11 14:59 041 1 gusting 5 16.1
2019-Dec-11 14:54 039 4 gusting 5 16.1
2019-Dec-11 14:49 062 2 gusting 5 16.1
2019-Dec-11 14:44 055 3 gusting 6 16.1
2019-Dec-11 14:39 047 4 gusting 6 16.7
2019-Dec-11 14:34 017 1 gusting 5 16.7
2019-Dec-11 14:29 358 3 gusting 6 16.7
2019-Dec-11 14:24 16.7
2019-Dec-11 14:19 010 4 gusting 5 16.7
2019-Dec-11 14:14 007 1 gusting 2 16.7
2019-Dec-11 14:09 007 0 gusting 1 16.7
2019-Dec-11 14:04 007 0 gusting 0 16.7
2019-Dec-11 13:59 007 16.7
2019-Dec-11 13:54 007 16.7
2019-Dec-11 13:49 007 0 gusting 2 16.7
2019-Dec-11 13:44 16.7
2019-Dec-11 13:39 16.7
2019-Dec-11 13:34 16.7
2019-Dec-11 13:29 358 1 gusting 4 17.2
2019-Dec-11 13:24 348 1 gusting 4 16.7
2019-Dec-11 13:19 350 3 gusting 5 16.7
2019-Dec-11 13:14 310 3 gusting 5 16.7
2019-Dec-11 13:09 296 3 gusting 5 17.2
2019-Dec-11 13:04 309 3 gusting 6 17.2
2019-Dec-11 12:59 17.2
2019-Dec-11 12:54 224 3 gusting 7 17.8
2019-Dec-11 12:49 045 0 gusting 5 17.8
2019-Dec-11 12:44 230 1 gusting 9 17.8
2019-Dec-11 12:39 213 6 gusting 9 17.8
2019-Dec-11 12:34 226 3 gusting 5 18.3
2019-Dec-11 12:29 182 4 gusting 5 18.3
2019-Dec-11 12:24 213 2 gusting 4 18.3
2019-Dec-11 12:19 169 3 gusting 5 18.3
2019-Dec-11 12:14 207 3 gusting 5 18.3
2019-Dec-11 12:09 203 3 gusting 5 18.3
2019-Dec-11 12:04 200 4 gusting 8 18.3
2019-Dec-11 11:59 192 5 gusting 8 18.3
2019-Dec-11 11:54 193 5 gusting 9 18.9
2019-Dec-11 11:49 186 6 gusting 10 18.9
2019-Dec-11 11:44 190 6 gusting 10 18.9
2019-Dec-11 11:39 197 6 gusting 9 18.9
2019-Dec-11 11:34 179 5 gusting 9 18.9
2019-Dec-11 11:29 217 6 gusting 9 18.9
2019-Dec-11 11:24 165 6 gusting 11 18.9
2019-Dec-11 11:19 190 7 gusting 11 18.9
2019-Dec-11 11:14 175 7 gusting 11 18.9
2019-Dec-11 11:09 189 6 gusting 11 18.9
2019-Dec-11 11:04 200 7 gusting 11 18.9
2019-Dec-11 10:59 190 6 gusting 12 18.9
2019-Dec-11 10:54 199 8 gusting 12 18.9
2019-Dec-11 10:49 192 6 gusting 12 18.9
2019-Dec-11 10:44 183 8 gusting 12 18.9
2019-Dec-11 10:39 171 7 gusting 12 18.9
2019-Dec-11 10:34 195 6 gusting 13 18.9
2019-Dec-11 10:29 209 6 gusting 13 18.9
2019-Dec-11 10:24 178 6 gusting 13 18.9
2019-Dec-11 10:19 204 7 gusting 13 18.3
2019-Dec-11 10:14 199 6 gusting 12 18.9
2019-Dec-11 10:09 179 7 gusting 12 18.9
2019-Dec-11 10:04 183 6 gusting 11 18.9
2019-Dec-11 09:59 175 6 gusting 11 18.9
2019-Dec-11 09:54 192 7 gusting 11 18.9
2019-Dec-11 09:49 192 6 gusting 13 18.9
2019-Dec-11 09:44 175 6 gusting 13 18.9
2019-Dec-11 09:39 183 7 gusting 12 18.9
2019-Dec-11 09:34 189 7 gusting 12 18.9
2019-Dec-11 09:29 193 8 gusting 10 18.9
2019-Dec-11 09:24 189 6 gusting 9 18.9
2019-Dec-11 09:19 204 6 gusting 9 18.9
2019-Dec-11 09:14 166 6 gusting 10 18.3
2019-Dec-11 09:09 190 7 gusting 10 18.3
2019-Dec-11 09:04 188 6 gusting 12 18.3
2019-Dec-11 08:59 186 7 gusting 12 18.3
2019-Dec-11 08:54 199 7 gusting 12 18.3
2019-Dec-11 08:49 196 7 gusting 11 18.3
2019-Dec-11 08:44 180 6 gusting 11 18.3
2019-Dec-11 08:39 169 6 gusting 12 17.8
2019-Dec-11 08:34 204 8 gusting 12 18.3
2019-Dec-11 08:29 188 9 gusting 11 18.3
2019-Dec-11 08:24 164 6 gusting 8 18.3
2019-Dec-11 08:19 183 5 gusting 9 17.8
2019-Dec-11 08:14 179 6 gusting 9 17.8
2019-Dec-11 08:09 193 4 gusting 6 17.8
2019-Dec-11 08:04 189 3 gusting 8 17.8
2019-Dec-11 07:59 199 6 gusting 8 17.8
2019-Dec-11 07:54 189 4 gusting 7 17.8
2019-Dec-11 07:49 203 5 gusting 7 17.8
2019-Dec-11 07:44 168 4 gusting 7 17.2
2019-Dec-11 07:39 178 4 gusting 6 17.2
2019-Dec-11 07:34 196 3 gusting 6 17.2
2019-Dec-11 07:29 165 5 gusting 6 16.7
2019-Dec-11 07:24 186 4 gusting 6 16.7
2019-Dec-11 07:19 144 2 gusting 4 16.1
2019-Dec-11 07:14 037 15.6
2019-Dec-11 07:09 082 0 gusting 1 15.6
2019-Dec-11 07:04 316 0 gusting 1 15.6
2019-Dec-11 06:59 316 0 gusting 1 15.0
2019-Dec-11 06:54 316 0 gusting 0 15.0
2019-Dec-11 06:49 316 14.4
2019-Dec-11 06:44 316 14.4
2019-Dec-11 06:39 316 1 gusting 2 14.4
2019-Dec-11 06:34 141 0 gusting 1 14.4
2019-Dec-11 06:29 141 14.4
2019-Dec-11 06:24 141 14.4
2019-Dec-11 06:19 145 1 gusting 1 15.0
2019-Dec-11 06:14 145 0 gusting 3 15.0
2019-Dec-11 06:09 145 0 gusting 6 15.0
2019-Dec-11 06:04 157 3 gusting 7 15.0
2019-Dec-11 05:59 244 3 gusting 10 15.0
2019-Dec-11 05:54 282 5 gusting 12 15.0
2019-Dec-11 05:49 206 7 gusting 12 15.6
2019-Dec-11 05:44 216 7 gusting 12 15.6
2019-Dec-11 05:39 266 6 gusting 13 15.6
2019-Dec-11 05:34 192 7 gusting 20 15.6
2019-Dec-11 05:29 231 8 gusting 20 15.6
2019-Dec-11 05:24 217 9 gusting 20 15.6
2019-Dec-11 05:19 131 0 gusting 1 15.6
2019-Dec-11 05:14 168 0 gusting 2 15.6
2019-Dec-11 05:09 168 0 gusting 2 15.6
2019-Dec-11 05:04 226 15.6
2019-Dec-11 04:59 094 15.6
2019-Dec-11 04:54 094 16.1
2019-Dec-11 04:49 213 0 gusting 2 16.1
2019-Dec-11 04:44 213 1 gusting 2 16.1
2019-Dec-11 04:39 217 16.1
2019-Dec-11 04:34 217 0 gusting 1 16.1
2019-Dec-11 04:29 217 16.1
2019-Dec-11 04:24 217 16.1
2019-Dec-11 04:19 217 0 gusting 2 16.7
2019-Dec-11 04:14 230 1 gusting 5 16.7
2019-Dec-11 04:09 176 2 gusting 6 16.7
2019-Dec-11 04:04 207 2 gusting 6 16.7
2019-Dec-11 03:59 206 2 gusting 4 16.1
2019-Dec-11 03:54 193 2 gusting 3 16.1
2019-Dec-11 03:49 179 16.1
2019-Dec-11 03:44 175 16.1
2019-Dec-11 03:39 178 16.1
2019-Dec-11 03:34 178 16.7
2019-Dec-11 03:29 227 1 gusting 7 16.7
2019-Dec-11 03:24 231 1 gusting 7 16.7
2019-Dec-11 03:19 231 4 gusting 8 16.1
2019-Dec-11 03:14 234 1 gusting 8 16.1
2019-Dec-11 03:09 199 3 gusting 4 15.6
2019-Dec-11 03:04 255 15.6
2019-Dec-11 02:59 296 15.0
2019-Dec-11 02:54 166 0 gusting 1 15.0
2019-Dec-11 02:49 166 0 gusting 1 15.6
2019-Dec-11 02:44 166 15.6
2019-Dec-11 02:39 166 15.6
2019-Dec-11 02:34 166 0 gusting 6 15.6
2019-Dec-11 02:29 154 3 gusting 8 15.6
2019-Dec-11 02:24 172 6 gusting 14 16.1
2019-Dec-11 02:19 196 8 gusting 14 16.7
2019-Dec-11 02:14 176 6 gusting 13 17.2
2019-Dec-11 02:09 164 8 gusting 13 16.7
2019-Dec-11 02:04 169 6 gusting 7 16.7
2019-Dec-11 01:59 172 4 gusting 9 16.7
2019-Dec-11 01:54 173 6 gusting 9 16.7
2019-Dec-11 01:49 182 6 gusting 10 16.7
2019-Dec-11 01:44 185 6 gusting 12 17.2
2019-Dec-11 01:39 171 8 gusting 13 17.2
2019-Dec-11 01:34 178 8 gusting 13 17.2
2019-Dec-11 01:29 166 8 gusting 13 17.2
2019-Dec-11 01:24 168 9 gusting 13 17.2
2019-Dec-11 01:19 180 7 gusting 13 17.2
2019-Dec-11 01:14 182 9 gusting 13 17.2
2019-Dec-11 01:09 196 6 gusting 14 17.2
2019-Dec-11 01:04 182 9 gusting 14 17.2
2019-Dec-11 00:59 185 8 gusting 16 17.2
2019-Dec-11 00:54 182 12 gusting 16 17.2
2019-Dec-11 00:49 141 9 gusting 15 17.2
2019-Dec-11 00:44 190 11 gusting 15 17.2
2019-Dec-11 00:39 171 10 gusting 19 17.2
2019-Dec-11 00:33 180 11 gusting 19 17.2
2019-Dec-11 00:28 155 12 gusting 20 17.2
2019-Dec-11 00:23 173 11 gusting 23 17.8
2019-Dec-11 00:18 192 19 gusting 23 17.2
2019-Dec-11 00:13 157 14 gusting 19 17.2
2019-Dec-11 00:08 175 10 gusting 18 17.2
2019-Dec-11 00:03 185 11 gusting 18 17.2
2019-Dec-10 23:58 175 9 gusting 15 17.2
2019-Dec-10 23:53 169 7 gusting 15 17.2
2019-Dec-10 23:48 164 12 gusting 16 17.2
2019-Dec-10 23:43 171 12 gusting 16 17.2
2019-Dec-10 23:38 193 9 gusting 20 16.7
2019-Dec-10 23:33 169 13 gusting 20 16.7
2019-Dec-10 23:28 164 9 gusting 14 16.7
2019-Dec-10 23:23 148 7 gusting 14 16.1
2019-Dec-10 23:18 173 6 gusting 11 15.6
2019-Dec-10 23:13 130 5 gusting 12 15.0
2019-Dec-10 23:08 176 5 gusting 12 14.4
2019-Dec-10 23:03 138 3 gusting 11 14.4
2019-Dec-10 22:58 114 4 gusting 11 14.4
2019-Dec-10 22:53 154 5 gusting 19 14.4
2019-Dec-10 22:48 196 11 gusting 23 15.6
2019-Dec-10 22:43 199 11 gusting 23 15.6
2019-Dec-10 22:38 193 13 gusting 19 17.2
2019-Dec-10 22:33 175 11 gusting 19 17.2
2019-Dec-10 22:28 154 10 gusting 19 17.8
2019-Dec-10 22:23 158 12 gusting 19 17.8
2019-Dec-10 22:18 190 14 gusting 19 17.8
2019-Dec-10 22:13 196 15 gusting 17 17.8
2019-Dec-10 22:08 172 7 gusting 13 17.8
2019-Dec-10 22:03 145 9 gusting 16 17.8
2019-Dec-10 21:58 158 11 gusting 16 18.3
2019-Dec-10 21:53 152 11 gusting 24 18.3
2019-Dec-10 21:48 176 17 gusting 24 18.3
2019-Dec-10 21:43 155 14 gusting 22 18.3
2019-Dec-10 21:38 180 14 gusting 22 18.3
2019-Dec-10 21:33 179 10 gusting 18 18.3
2019-Dec-10 21:28 182 14 gusting 20 18.3
2019-Dec-10 21:23 145 12 gusting 20 18.3
2019-Dec-10 21:18 164 11 gusting 18 18.3
2019-Dec-10 21:13 159 13 gusting 20 18.3
2019-Dec-10 21:08 169 12 gusting 20 18.3
2019-Dec-10 21:03 172 13 gusting 19 18.3
2019-Dec-10 20:58 175 13 gusting 24 18.3
2019-Dec-10 20:53 159 14 gusting 24 18.3
2019-Dec-10 20:48 176 13 gusting 23 18.3
2019-Dec-10 20:43 142 14 gusting 23 18.3
2019-Dec-10 20:38 168 13 gusting 19 17.8
2019-Dec-10 20:33 168 12 gusting 16 17.8
2019-Dec-10 20:28 148 8 gusting 17 17.8
2019-Dec-10 20:23 179 10 gusting 17 17.8
2019-Dec-10 20:18 145 11 gusting 20 17.8
2019-Dec-10 20:13 148 9 gusting 20 17.8
2019-Dec-10 20:08 147 9 gusting 14 17.8
2019-Dec-10 20:03 148 8 gusting 15 17.8
2019-Dec-10 19:58 142 8 gusting 15 17.8
2019-Dec-10 19:53 125 11 gusting 22 17.8
2019-Dec-10 19:48 176 11 gusting 22 17.8
2019-Dec-10 19:43 168 10 gusting 16 17.8
2019-Dec-10 19:38 152 10 gusting 17 17.8
2019-Dec-10 19:33 133 13 gusting 17 17.8
2019-Dec-10 19:28 186 12 gusting 18 17.8
2019-Dec-10 19:23 154 12 gusting 18 17.8
2019-Dec-10 19:18 176 9 gusting 13 17.8
2019-Dec-10 19:13 099 7 gusting 13 17.8
2019-Dec-10 19:08 173 6 gusting 14 17.8
2019-Dec-10 19:03 128 8 gusting 19 17.8
2019-Dec-10 18:58 195 9 gusting 19 17.8
2019-Dec-10 18:53 147 11 gusting 17 17.2
2019-Dec-10 18:48 171 4 gusting 13 17.2
2019-Dec-10 18:43 182 7 gusting 13 17.2
2019-Dec-10 18:38 114 9 gusting 14 17.2
2019-Dec-10 18:33 169 7 gusting 16 17.2
2019-Dec-10 18:28 171 9 gusting 19 16.7
2019-Dec-10 18:23 176 14 gusting 19 17.8
2019-Dec-10 18:18 168 6 gusting 17 17.8
2019-Dec-10 18:13 180 12 gusting 17 17.8
2019-Dec-10 18:08 200 11 gusting 18 17.8
2019-Dec-10 18:03 172 9 gusting 22 17.8
2019-Dec-10 17:58 155 13 gusting 22 17.8
2019-Dec-10 17:53 171 9 gusting 14 17.8
2019-Dec-10 17:48 151 10 gusting 18 17.8
2019-Dec-10 17:43 152 9 gusting 18 17.8
2019-Dec-10 17:38 155 9 gusting 14 17.8
2019-Dec-10 17:33 121 9 gusting 14 17.8
2019-Dec-10 17:28 172 11 gusting 16 17.8
2019-Dec-10 17:23 169 11 gusting 18 17.8
2019-Dec-10 17:18 166 12 gusting 18 17.8
2019-Dec-10 17:13 189 12 gusting 18 17.8
2019-Dec-10 17:08 142 12 gusting 16 17.8
2019-Dec-10 17:03 155 10 gusting 15 17.8
2019-Dec-10 16:58 117 10 gusting 15 17.8
2019-Dec-10 16:53 152 7 gusting 10 17.8
2019-Dec-10 16:48 168 6 gusting 11 17.8
2019-Dec-10 16:43 116 7 gusting 14 17.8
2019-Dec-10 16:38 109 10 gusting 15 17.8
2019-Dec-10 16:33 172 6 gusting 15 17.8
2019-Dec-10 16:28 154 7 gusting 14 17.8
2019-Dec-10 16:23 048 7 gusting 15 17.8
2019-Dec-10 16:18 155 6 gusting 16 17.8
2019-Dec-10 16:13 157 10 gusting 16 17.8
2019-Dec-10 16:08 137 6 gusting 14 17.8
2019-Dec-10 16:03 128 3 gusting 14 17.8
2019-Dec-10 15:58 147 9 gusting 13 17.8
2019-Dec-10 15:53 141 6 gusting 13 17.8
2019-Dec-10 15:48 127 6 gusting 11 17.8
2019-Dec-10 15:43 171 4 gusting 11 17.8
2019-Dec-10 15:38 157 8 gusting 11 17.2
2019-Dec-10 15:33 152 6 gusting 11 17.2
2019-Dec-10 15:28 166 7 gusting 10 17.2
2019-Dec-10 15:23 142 6 gusting 13 17.2
2019-Dec-10 15:18 121 5 gusting 13 17.2
2019-Dec-10 15:13 145 6 gusting 12 17.2
2019-Dec-10 15:08 193 6 gusting 12 17.2
2019-Dec-10 15:03 151 5 gusting 10 17.2
2019-Dec-10 14:58 134 6 gusting 10 17.8
2019-Dec-10 14:53 166 5 gusting 10 17.8
2019-Dec-10 14:48 123 5 gusting 13 17.8
2019-Dec-10 14:43 121 6 gusting 13 17.8
2019-Dec-10 14:38 157 5 gusting 10 17.8
2019-Dec-10 14:33 086 6 gusting 12 17.8
2019-Dec-10 14:28 176 5 gusting 12 17.8
2019-Dec-10 14:23 135 5 gusting 7 17.8
2019-Dec-10 14:18 133 5 gusting 9 17.8
2019-Dec-10 14:13 161 4 gusting 10 17.8
2019-Dec-10 14:08 154 6 gusting 10 17.8
2019-Dec-10 14:03 182 6 gusting 11 17.2
2019-Dec-10 13:58 137 6 gusting 11 17.2
2019-Dec-10 13:53 164 6 gusting 13 17.2
2019-Dec-10 13:48 110 9 gusting 18 17.8
2019-Dec-10 13:43 169 13 gusting 18 17.8
2019-Dec-10 13:38 142 6 gusting 14 17.8
2019-Dec-10 13:33 172 7 gusting 15 17.8
2019-Dec-10 13:28 147 11 gusting 15 17.8
2019-Dec-10 13:23 166 9 gusting 15 17.8
2019-Dec-10 13:18 142 8 gusting 15 17.8
2019-Dec-10 13:13 159 9 gusting 13 17.8
2019-Dec-10 13:08 152 9 gusting 12 17.8
2019-Dec-10 13:03 155 4 gusting 13 17.8
2019-Dec-10 12:58 164 9 gusting 13 17.8
2019-Dec-10 12:53 107 8 gusting 13 18.3
2019-Dec-10 12:48 147 6 gusting 15 18.3
2019-Dec-10 12:43 169 7 gusting 15 18.3
2019-Dec-10 12:38 149 7 gusting 13 18.9
2019-Dec-10 12:33 125 6 gusting 9 18.9
2019-Dec-10 12:28 182 3 gusting 8 18.3
2019-Dec-10 12:23 058 5 gusting 8 18.3
2019-Dec-10 12:18 128 3 gusting 7 18.3
2019-Dec-10 12:13 148 2 gusting 8 18.3
2019-Dec-10 12:08 118 5 gusting 10 18.3
2019-Dec-10 12:03 164 6 gusting 11 18.3
2019-Dec-10 11:58 093 6 gusting 11 18.3
2019-Dec-10 11:53 138 5 gusting 10 18.3
2019-Dec-10 11:48 097 5 gusting 11 18.3
2019-Dec-10 11:43 118 6 gusting 11 18.9
2019-Dec-10 11:38 085 5 gusting 13 18.9
2019-Dec-10 11:33 109 6 gusting 13 18.9
2019-Dec-10 11:28 134 6 gusting 11 18.9
2019-Dec-10 11:23 125 5 gusting 11 18.9
2019-Dec-10 11:18 106 5 gusting 11 18.9
2019-Dec-10 11:13 099 4 gusting 10 18.9
2019-Dec-10 11:08 165 6 gusting 13 18.3
2019-Dec-10 11:03 155 7 gusting 13 18.3
2019-Dec-10 10:58 175 8 gusting 13 18.3
2019-Dec-10 10:53 151 8 gusting 12 18.3
2019-Dec-10 10:48 161 8 gusting 11 18.3
2019-Dec-10 10:43 164 6 gusting 12 18.3
2019-Dec-10 10:38 142 9 gusting 12 17.8
2019-Dec-10 10:33 155 7 gusting 15 17.8
2019-Dec-10 10:28 172 11 gusting 20 17.8
2019-Dec-10 10:23 154 14 gusting 20 17.8
2019-Dec-10 10:18 186 11 gusting 18 18.3
2019-Dec-10 10:13 152 11 gusting 18 18.3
2019-Dec-10 10:08 190 9 gusting 16 18.3
2019-Dec-10 10:03 149 9 gusting 14 18.3
2019-Dec-10 09:58 164 11 gusting 15 18.9
2019-Dec-10 09:53 165 7 gusting 15 18.3
2019-Dec-10 09:48 154 7 gusting 12 18.3
2019-Dec-10 09:43 124 5 gusting 9 17.8
2019-Dec-10 09:38 092 5 gusting 11 17.8
2019-Dec-10 09:32 145 7 gusting 11 17.2
2019-Dec-10 09:27 154 6 gusting 18 17.2
2019-Dec-10 09:22 125 10 gusting 18 17.8
2019-Dec-10 09:17 147 7 gusting 14 18.3
2019-Dec-10 09:12 142 6 gusting 10 18.3
2019-Dec-10 09:07 142 4 gusting 14 18.3
2019-Dec-10 09:02 135 9 gusting 14 18.3
2019-Dec-10 08:57 092 7 gusting 13 18.3
2019-Dec-10 08:52 159 6 gusting 13 18.3
2019-Dec-10 08:47 158 6 gusting 12 18.3
2019-Dec-10 08:42 142 7 gusting 15 18.9
2019-Dec-10 08:37 141 6 gusting 15 18.9
2019-Dec-10 08:32 164 9 gusting 13 18.9
2019-Dec-10 08:27 141 7 gusting 12 18.9
2019-Dec-10 08:22 168 7 gusting 13 18.9
2019-Dec-10 08:17 147 5 gusting 14 18.3
2019-Dec-10 08:12 171 5 gusting 14 18.3
2019-Dec-10 08:07 133 7 gusting 13 18.3
2019-Dec-10 08:02 186 6 gusting 10 18.3
2019-Dec-10 07:57 140 4 gusting 11 18.3
2019-Dec-10 07:52 142 8 gusting 12 17.8
2019-Dec-10 07:47 145 5 gusting 12 17.8
2019-Dec-10 07:42 172 6 gusting 9 17.8
2019-Dec-10 07:37 145 5 gusting 9 17.8
2019-Dec-10 07:32 172 5 gusting 12 17.8
2019-Dec-10 07:27 144 5 gusting 12 17.2
2019-Dec-10 07:22 158 6 gusting 13 17.2
2019-Dec-10 07:17 142 6 gusting 13 17.2
2019-Dec-10 07:12 166 6 gusting 12 17.2
2019-Dec-10 07:07 152 5 gusting 12 16.7
2019-Dec-10 07:02 141 4 gusting 7 16.7
2019-Dec-10 06:57 155 5 gusting 8 16.7
2019-Dec-10 06:52 142 6 gusting 8 16.7
2019-Dec-10 06:47 151 5 gusting 8 16.7
2019-Dec-10 06:42 125 5 gusting 11 16.7
2019-Dec-10 06:37 159 5 gusting 11 16.7
2019-Dec-10 06:32 169 6 gusting 9 16.1
2019-Dec-10 06:27 131 3 gusting 6 16.1
2019-Dec-10 06:22 141 3 gusting 6 16.1
2019-Dec-10 06:17 169 2 gusting 6 16.1
2019-Dec-10 06:12 158 3 gusting 5 16.1
2019-Dec-10 06:07 175 3 gusting 5 16.1
2019-Dec-10 06:02 157 2 gusting 7 16.1
2019-Dec-10 05:57 161 3 gusting 7 15.6
2019-Dec-10 05:52 161 2 gusting 3 15.6
2019-Dec-10 05:47 165 2 gusting 3 15.6
2019-Dec-10 05:42 172 0 gusting 3 15.6
2019-Dec-10 05:37 154 1 gusting 3 15.6
2019-Dec-10 05:32 154 2 gusting 5 15.6
2019-Dec-10 05:27 145 2 gusting 5 15.6
2019-Dec-10 05:22 111 1 gusting 2 15.6
2019-Dec-10 05:17 103 1 gusting 2 15.6
2019-Dec-10 05:12 159 0 gusting 2 15.6
2019-Dec-10 05:07 159 0 gusting 3 15.6
2019-Dec-10 05:02 117 15.6
2019-Dec-10 04:57 162 1 gusting 4 15.6
2019-Dec-10 04:52 154 2 gusting 9 15.6
2019-Dec-10 04:47 155 5 gusting 9 15.6
2019-Dec-10 04:42 179 4 gusting 7 15.6
2019-Dec-10 04:37 162 3 gusting 5 15.6
2019-Dec-10 04:32 159 3 gusting 6 15.6
2019-Dec-10 04:27 166 4 gusting 7 15.6
2019-Dec-10 04:22 151 5 gusting 7 15.6
2019-Dec-10 04:17 178 5 gusting 7 15.6
2019-Dec-10 04:12 169 4 gusting 5 15.6
2019-Dec-10 04:07 157 3 gusting 6 15.6
2019-Dec-10 04:02 158 4 gusting 7 15.6
2019-Dec-10 03:57 168 3 gusting 7 15.6
2019-Dec-10 03:52 178 2 gusting 6 15.6
2019-Dec-10 03:47 166 3 gusting 6 15.6
2019-Dec-10 03:42 151 3 gusting 6 15.6
2019-Dec-10 03:37 145 4 gusting 6 15.6
2019-Dec-10 03:32 158 1 gusting 5 15.0
2019-Dec-10 03:27 114 1 gusting 2 15.0
2019-Dec-10 03:22 104 15.0
2019-Dec-10 03:17 149 15.0
2019-Dec-10 03:12 137 0 gusting 1 15.0
2019-Dec-10 03:07 137 0 gusting 2 15.0
2019-Dec-10 03:01 137 1 gusting 2 15.0
2019-Dec-10 02:56 159 1 gusting 5 15.0
2019-Dec-10 02:51 182 2 gusting 7 15.0
2019-Dec-10 02:46 185 3 gusting 7 15.0
2019-Dec-10 02:41 161 3 gusting 5 15.0
2019-Dec-10 02:36 159 3 gusting 6 15.0
2019-Dec-10 02:31 169 5 gusting 6 15.0
2019-Dec-10 02:26 189 3 gusting 6 14.4
2019-Dec-10 02:21 168 3 gusting 6 14.4
2019-Dec-10 02:16 168 4 gusting 6 14.4
2019-Dec-10 02:11 166 4 gusting 5 14.4
2019-Dec-10 02:06 168 3 gusting 6 15.0
2019-Dec-10 02:01 152 5 gusting 8 15.0
2019-Dec-10 01:56 192 4 gusting 8 15.0
2019-Dec-10 01:51 159 5 gusting 9 15.0
2019-Dec-10 01:46 155 6 gusting 13 15.0
2019-Dec-10 01:41 180 6 gusting 13 15.0
2019-Dec-10 01:36 176 7 gusting 11 15.0
2019-Dec-10 01:31 186 6 gusting 11 15.0
2019-Dec-10 01:26 183 6 gusting 11 15.0
2019-Dec-10 01:21 188 8 gusting 11 15.0
2019-Dec-10 01:16 202 6 gusting 9 15.0
2019-Dec-10 01:11 159 4 gusting 9 15.0
2019-Dec-10 01:06 182 5 gusting 8 15.0
2019-Dec-10 01:01 166 4 gusting 6 15.0
2019-Dec-10 00:56 183 4 gusting 8 15.6
2019-Dec-10 00:51 164 4 gusting 11 15.6
2019-Dec-10 00:46 165 6 gusting 11 15.6
2019-Dec-10 00:41 173 7 gusting 11 15.6
2019-Dec-10 00:36 175 7 gusting 10 15.6
2019-Dec-10 00:31 154 5 gusting 8 15.6
2019-Dec-10 00:26 171 4 gusting 10 15.6
2019-Dec-10 00:21 165 4 gusting 10 15.6
2019-Dec-10 00:16 185 6 gusting 8 16.1
2019-Dec-10 00:11 182 5 gusting 8 16.1
2019-Dec-10 00:06 166 5 gusting 6 15.6
2019-Dec-10 00:01 155 4 gusting 6 15.6
2019-Dec-09 23:56 154 4 gusting 7 15.6
2019-Dec-09 23:51 144 5 gusting 7 15.6
2019-Dec-09 23:46 147 5 gusting 6 15.6
2019-Dec-09 23:41 154 3 gusting 6 15.6
2019-Dec-09 23:36 134 4 gusting 6 15.6
2019-Dec-09 23:31 141 4 gusting 6 15.0
2019-Dec-09 23:26 161 3 gusting 5 15.0
2019-Dec-09 23:21 171 3 gusting 4 14.4
2019-Dec-09 23:16 171 1 gusting 5 13.9
2019-Dec-09 23:11 155 2 gusting 5 13.9
2019-Dec-09 23:06 334 13.3
2019-Dec-09 23:01 334 13.3
2019-Dec-09 22:56 334 13.3
2019-Dec-09 22:51 334 13.3
2019-Dec-09 22:46 334 13.3
2019-Dec-09 22:41 334 13.3
2019-Dec-09 22:36 334 12.8
2019-Dec-09 22:31 334 12.8
2019-Dec-09 22:26 334 13.3
2019-Dec-09 22:21 334 12.8
2019-Dec-09 22:16 334 0 gusting 2 12.8
2019-Dec-09 22:11 334 1 gusting 2 12.8
2019-Dec-09 22:06 334 1 gusting 2 12.8
2019-Dec-09 22:01 334 1 gusting 2 12.2
2019-Dec-09 21:56 334 0 gusting 2 12.2
2019-Dec-09 21:51 334 1 gusting 2 12.2
2019-Dec-09 21:46 334 0 gusting 2 12.2
2019-Dec-09 21:41 334 0 gusting 2 12.2
2019-Dec-09 21:36 334 1 gusting 2 12.2
2019-Dec-09 21:31 334 2 gusting 2 12.2
2019-Dec-09 21:26 336 2 gusting 4 12.2
2019-Dec-09 21:21 336 2 gusting 4 12.2
2019-Dec-09 21:16 334 3 gusting 4 12.2
2019-Dec-09 21:11 314 2 gusting 2 12.2
2019-Dec-09 21:06 314 2 gusting 3 12.2
2019-Dec-09 21:01 312 1 gusting 3 12.2